Weather in Maloye Beloye

Russia / Kurgan Oblast     55°25′29″N   64°25′14″E
temp.,
°C
wind,
m/s
gust,
m/s
humid.,
%
clouds,
%
prec.,
mm/h
press.,
hPa
HPBL,
m
3 march, wed
wed323:00−15s5119498 0.0 1006295
02:00−14ssw51095100 0.1 1004341
05:00−10ssw51193100 0.3 1004498
08:00−11ssw51192100 0.0 1002391
11:00−7sw61091100 0.1 1002519
14:00−4sw51091100 0.1 1002580
17:00−3sw51090100 0.1 1002626
20:00−4ssw4993100 0.0 1001415
4 march, thu
thu423:00−5ssw3996100 0.0 1001274
02:00−4ssw4996100 0.1 999324
05:00−4ssw499698 0.5 999346
08:00−5sw379698 0.2 998270
11:00−4w359599 0.3 997293
14:00−2w4789100 0.0 997611
17:00−4w5988100 0.1 999884
20:00−8wsw4128688 0.1 1000325
5 march, fri
fri523:00−11sw498844 0.1 1001179
02:00−9sw5138962 0.0 1000431
05:00−7sw7149381 0.5 999821
08:00−6sw7178693 0.5 998627
11:00−2wsw8128173 0.5 10001017
14:00−1wsw6118167 0.0 1002814
17:000sw4108983 0.0 1003831
20:00−1sw51197100 1.4 1002644
6 march, sat
sat623:000sw61292100 2.8 1002844
02:00−2sw41196100 0.2 1000576
05:00−1ssw2798100 3.1 999362
08:00−5nw71294100 1.8 1002713
11:00−9wnw7128583 1.8 1007643
14:00−9w611858 0.0 1009651
17:00−10w5108644 0.0 1011642
20:00−14w379250 0.0 1012133
7 march, sun
sun723:00−15w239275 0.0 101237
02:00−14s0192100 0.0 100920
05:00−13ne2296100 0.2 100859
08:00−14nne2496100 0.2 1006151
11:00−11n348998 0.2 1007323
14:00−9nnw348598 0.0 1008447
17:00−10wnw248873 0.0 1009358
20:00−15wsw22910 0.0 101120